| time (UTC) | temp F | wind direction | speed MPH | gust MPH | rain 1hr in | rain 24hr in | rain mn in | humidity % | barometer mb |
| 20260504045646 | 70 | 318 | 3.0 | 3.0 | 0.00 | 0.11 | 0.11 | 80 | 1011.1 |
| 20260504044146 | 69 | 276 | 3.0 | 6.0 | 0.00 | 0.11 | 0.11 | 80 | 1011.4 |
| 20260504042644 | 69 | 304 | 1.0 | 2.0 | 0.00 | 0.11 | 0.11 | 81 | 1011.5 |
| 20260504041144 | 69 | 313 | 5.0 | 6.0 | 0.00 | 0.11 | 0.11 | 83 | 1011.6 |
| 20260504035640 | 69 | 287 | 3.0 | 5.0 | 0.00 | 0.11 | 0.11 | 82 | 1011.8 |
| 20260504034137 | 69 | 0 | 4.0 | 6.0 | 0.00 | 0.11 | 0.11 | 81 | 1011.5 |
| 20260504032635 | 69 | 299 | 6.0 | 8.0 | 0.00 | 0.11 | 0.11 | 82 | 1011.9 |
| 20260504031131 | 69 | 324 | 1.0 | 3.0 | 0.00 | 0.11 | 0.11 | 79 | 1012.0 |
| 20260504025627 | 68 | 301 | 2.0 | 2.0 | 0.00 | 0.11 | 0.11 | 85 | 1012.1 |
| 20260504024124 | 68 | 315 | 5.0 | 7.0 | 0.00 | 0.11 | 0.11 | 84 | 1012.7 |
| 20260504022619 | 66 | 338 | 6.0 | 9.0 | 0.00 | 0.11 | 0.11 | 86 | 1012.5 |
| 20260504021115 | 66 | 73 | 5.0 | 7.0 | 0.00 | 0.11 | 0.11 | 88 | 1012.2 |
| 20260504015611 | 68 | 9 | 4.0 | 7.0 | 0.00 | 0.11 | 0.11 | 85 | 1012.7 |
| 20260504014107 | 67 | 320 | 0.0 | 0.0 | 0.00 | 0.11 | 0.11 | 86 | 1013.2 |
| 20260504012604 | 66 | 319 | 0.0 | 0.0 | 0.00 | 0.11 | 0.11 | 91 | 1013.8 |
| 20260504011100 | 64 | 348 | 3.0 | 3.0 | 0.07 | 0.11 | 0.11 | 94 | 1014.4 |
| 20260504005600 | 63 | 298 | 0.0 | 0.0 | 0.05 | 0.10 | 0.10 | 93 | 1014.5 |
| 20260504004059 | 64 | 316 | 0.0 | 0.0 | 0.12 | 0.09 | 0.09 | 90 | 1015.0 |
| 20260504002554 | 67 | 311 | 2.0 | 2.0 | 0.05 | 0.06 | 0.06 | 82 | 1015.3 |
| 20260504001051 | 66 | 295 | 2.0 | 3.0 | 0.00 | 0.05 | 0.05 | 82 | 1015.1 |
| 20260503235550 | 65 | 302 | 0.0 | 0.0 | 0.00 | 0.05 | 0.05 | 84 | 1014.9 |
| 20260503234048 | 63 | 304 | 1.0 | 2.0 | 0.00 | 0.05 | 0.05 | 93 | 1014.6 |
| 20260503232544 | 64 | 321 | 1.0 | 5.0 | 0.00 | 0.05 | 0.05 | 95 | 1014.7 |
| 20260503231041 | 64 | 327 | 0.0 | 0.0 | 0.12 | 0.05 | 0.05 | 95 | 1014.8 |
| 20260503225538 | 64 | 311 | 0.0 | 0.0 | 0.07 | 0.03 | 0.03 | 93 | 1014.9 |
| 20260503224034 | 65 | 299 | 0.0 | 0.0 | 0.05 | 0.02 | 0.02 | 91 | 1015.0 |
| 20260503222531 | 66 | 316 | 0.0 | 1.0 | 0.00 | 0.00 | 0.00 | 88 | 1014.9 |
| 20260503221030 | 66 | 302 | 0.0 | 0.0 | 0.00 | 0.00 | 0.00 | 87 | 1014.8 |
| 20260503215526 | 66 | 316 | 0.0 | 1.0 | 0.00 | 0.00 | 0.00 | 86 | 1014.6 |
| 20260503214023 | 66 | 83 | 2.0 | 6.0 | 0.00 | 0.00 | 0.00 | 86 | 1014.4 |
| 20260503212521 | 66 | 303 | 0.0 | 0.0 | 0.00 | 0.00 | 0.00 | 85 | 1013.9 |
| 20260503211016 | 66 | 296 | 1.0 | 1.0 | 0.00 | 0.00 | 0.00 | 85 | 1013.8 |
| 20260503205512 | 66 | 303 | 2.0 | 3.0 | 0.00 | 0.00 | 0.00 | 86 | 1013.7 |
| 20260503204008 | 65 | 328 | 2.0 | 2.0 | 0.00 | 0.00 | 0.00 | 87 | 1013.7 |
| 20260503202506 | 65 | 316 | 2.0 | 2.0 | 0.00 | 0.00 | 0.00 | 87 | 1013.8 |
| 20260503201004 | 65 | 313 | 1.0 | 1.0 | 0.00 | 0.00 | 0.00 | 87 | 1013.5 |
| 20260503195500 | 65 | 323 | 1.0 | 2.0 | 0.00 | 0.00 | 0.00 | 87 | 1013.8 |
| 20260503194000 | 64 | 312 | 2.0 | 3.0 | 0.00 | 0.00 | 0.00 | 87 | 1013.9 |
| 20260503192500 | 64 | 312 | 0.0 | 0.0 | 0.00 | 0.00 | 0.00 | 86 | 1014.1 |
| 20260503190955 | 64 | 308 | 0.0 | 0.0 | 0.00 | 0.00 | 0.00 | 86 | 1014.1 |
| 20260503185452 | 64 | 304 | 0.0 | 0.0 | 0.00 | 0.00 | 0.00 | 88 | 1014.1 |
| 20260503183950 | 63 | 317 | 1.0 | 1.0 | 0.00 | 0.00 | 0.00 | 89 | 1014.4 |
| 20260503182449 | 64 | 299 | 0.0 | 0.0 | 0.00 | 0.00 | 0.00 | 89 | 1014.3 |
| 20260503180944 | 64 | 295 | 0.0 | 0.0 | 0.00 | 0.00 | 0.00 | 88 | 1014.4 |
| 20260503175443 | 64 | 267 | 0.0 | 0.0 | 0.00 | 0.00 | 0.00 | 88 | 1014.3 |
| 20260503173943 | 65 | 238 | 0.0 | 0.0 | 0.00 | 0.00 | 0.00 | 86 | 1014.3 |
| 20260503172440 | 65 | 242 | 2.0 | 2.0 | 0.00 | 0.00 | 0.00 | 87 | 1014.3 |
| 20260503170936 | 65 | 228 | 1.0 | 1.0 | 0.00 | 0.00 | 0.00 | 87 | 1014.1 |
| 20260503150912 | 67 | 323 | 3.0 | 3.0 | 0.00 | 0.00 | 0.00 | 84 | 1014.6 |
| 20260503130846 | 69 | 300 | 0.0 | 0.0 | 0.00 | 0.00 | 0.00 | 81 | 1015.7 |
| 20260503080807 | 69 | 10 | 1.0 | 1.0 | 0.00 | 0.00 | 0.00 | 84 | 1016.1 |
| 20260503072304 | 69 | 19 | 6.0 | 8.0 | 0.00 | 0.00 | 0.00 | 83 | 1015.9 |
| 20260503070757 | 69 | 25 | 1.0 | 2.0 | 0.00 | 0.00 | 0.00 | 82 | 1016.1 |